Time,TemperatureF,DewpointF,PressureIn,WindDirection,WindDirectionDegrees,WindSpeedMPH,WindSpeedGustMPH,Humidity,HourlyPrecipIn,Conditions,Clouds,dailyrainin,SoftwareType,DateUTC
2013-03-17 00:01:00,36.6,28.0,30.04,NNE,29,0.0,3.0,71,0.00,,,0.00,weatherlink.com 1.10,2013-03-17 05:01:00,
2013-03-17 00:16:00,36.5,28.0,30.03,ENE,71,0.0,5.0,71,0.00,,,0.00,weatherlink.com 1.10,2013-03-17 05:16:00,
2013-03-17 00:31:00,36.2,27.0,30.03,NE,40,2.0,8.0,70,0.00,,,0.00,weatherlink.com 1.10,2013-03-17 05:31:00,
2013-03-17 00:46:00,36.0,27.0,30.02,NE,36,3.0,6.0,70,0.00,,,0.00,weatherlink.com 1.10,2013-03-17 05:46:00,
2013-03-17 01:01:00,35.9,27.0,30.00,ENE,58,1.0,5.0,71,0.00,,,0.00,weatherlink.com 1.10,2013-03-17 06:01:00,
2013-03-17 01:16:00,35.6,27.0,30.01,NNE,32,1.0,7.0,71,0.00,,,0.00,weatherlink.com 1.10,2013-03-17 06:16:00,
2013-03-17 01:31:00,35.4,27.0,30.01,ESE,118,0.0,11.0,72,0.00,,,0.00,weatherlink.com 1.10,2013-03-17 06:31:00,
2013-03-17 01:47:00,35.3,27.0,30.01,ENE,71,0.0,8.0,72,0.00,,,0.00,weatherlink.com 1.10,2013-03-17 06:47:00,
2013-03-17 02:02:00,35.2,27.0,30.01,NE,50,0.0,6.0,72,0.00,,,0.00,weatherlink.com 1.10,2013-03-17 07:02:00,
2013-03-17 02:17:00,35.1,27.0,30.02,NNE,21,0.0,5.0,73,0.00,,,0.00,weatherlink.com 1.10,2013-03-17 07:17:00,
2013-03-17 02:32:00,35.0,27.0,30.02,NW,321,0.0,4.0,72,0.00,,,0.00,weatherlink.com 1.10,2013-03-17 07:32:00,
2013-03-17 02:47:00,34.8,26.0,30.01,NNE,18,5.0,10.0,71,0.00,,,0.00,weatherlink.com 1.10,2013-03-17 07:47:00,
2013-03-17 03:17:00,34.3,26.0,30.02,NW,321,1.0,7.0,72,0.00,,,0.00,weatherlink.com 1.10,2013-03-17 08:17:00,
2013-03-17 03:32:00,34.2,26.0,30.01,ENE,70,1.0,5.0,73,0.00,,,0.00,weatherlink.com 1.10,2013-03-17 08:32:00,
2013-03-17 03:47:00,34.0,26.0,30.01,East,86,0.0,5.0,72,0.00,,,0.00,weatherlink.com 1.10,2013-03-17 08:47:00,
2013-03-17 04:02:00,33.9,26.0,30.01,NE,40,1.0,4.0,73,0.00,,,0.00,weatherlink.com 1.10,2013-03-17 09:02:00,
2013-03-17 04:17:00,33.6,26.0,30.01,NNE,32,0.0,3.0,74,0.00,,,0.00,weatherlink.com 1.10,2013-03-17 09:17:00,
2013-03-17 04:32:00,33.2,26.0,29.99,NE,48,1.0,6.0,75,0.00,,,0.00,weatherlink.com 1.10,2013-03-17 09:32:00,
2013-03-17 04:47:00,33.1,26.0,29.99,NE,34,5.0,8.0,75,0.00,,,0.00,weatherlink.com 1.10,2013-03-17 09:47:00,
2013-03-17 05:02:00,33.0,26.0,29.99,North,11,0.0,5.0,74,0.00,,,0.00,weatherlink.com 1.10,2013-03-17 10:02:00,
2013-03-17 05:17:00,32.8,25.0,29.98,NNE,25,3.0,4.0,74,0.00,,,0.00,weatherlink.com 1.10,2013-03-17 10:17:00,
2013-03-17 05:32:00,32.5,25.0,29.99,NNE,33,2.0,5.0,75,0.00,,,0.00,weatherlink.com 1.10,2013-03-17 10:32:00,
2013-03-17 05:47:00,32.3,26.0,29.98,NE,49,0.0,8.0,76,0.00,,,0.00,weatherlink.com 1.10,2013-03-17 10:47:00,
2013-03-17 06:02:00,32.1,25.0,29.99,East,79,0.0,6.0,76,0.00,,,0.00,weatherlink.com 1.10,2013-03-17 11:02:00,
2013-03-17 06:17:00,32.1,26.0,29.98,East,94,1.0,6.0,77,0.00,,,0.00,weatherlink.com 1.10,2013-03-17 11:17:00,
2013-03-17 06:32:00,32.1,26.0,29.98,East,98,1.0,4.0,77,0.00,,,0.00,weatherlink.com 1.10,2013-03-17 11:32:00,
2013-03-17 07:02:00,31.8,26.0,30.00,ENE,57,1.0,5.0,79,0.00,,,0.00,weatherlink.com 1.10,2013-03-17 12:02:00,
2013-03-17 07:17:00,31.6,26.0,30.00,East,80,0.0,5.0,80,0.00,,,0.00,weatherlink.com 1.10,2013-03-17 12:17:00,
2013-03-17 07:47:00,31.6,26.0,30.01,ENE,77,0.0,5.0,81,0.00,,,0.00,weatherlink.com 1.10,2013-03-17 12:47:00,
2013-03-17 08:02:00,31.6,27.0,30.00,ENE,68,0.0,9.0,82,0.00,,,0.00,weatherlink.com 1.10,2013-03-17 13:02:00,
2013-03-17 08:17:00,31.6,27.0,29.99,NE,37,6.0,6.0,82,0.00,,,0.00,weatherlink.com 1.10,2013-03-17 13:17:00,
2013-03-17 08:32:00,31.7,27.0,29.99,NNE,32,1.0,5.0,82,0.00,,,0.00,weatherlink.com 1.10,2013-03-17 13:32:00,
2013-03-17 08:47:00,31.8,27.0,30.00,East,96,0.0,7.0,81,0.00,,,0.00,weatherlink.com 1.10,2013-03-17 13:47:00,
2013-03-17 09:02:00,31.7,26.0,30.00,ESE,102,4.0,6.0,80,0.00,,,0.00,weatherlink.com 1.10,2013-03-17 14:02:00,
2013-03-17 09:17:00,31.6,26.0,29.99,East,79,3.0,8.0,80,0.00,,,0.00,weatherlink.com 1.10,2013-03-17 14:17:00,
2013-03-17 09:32:00,31.6,26.0,29.99,East,79,0.0,9.0,80,0.00,,,0.00,weatherlink.com 1.10,2013-03-17 14:32:00,
2013-03-17 09:47:00,31.6,26.0,30.00,NE,43,0.0,6.0,81,0.00,,,0.00,weatherlink.com 1.10,2013-03-17 14:47:00,
2013-03-17 10:02:00,31.6,27.0,29.99,East,83,0.0,5.0,82,0.00,,,0.00,weatherlink.com 1.10,2013-03-17 15:02:00,
2013-03-17 10:17:00,31.6,27.0,29.99,East,86,0.0,7.0,83,0.00,,,0.00,weatherlink.com 1.10,2013-03-17 15:17:00,
2013-03-17 10:32:00,31.7,28.0,29.98,ESE,108,0.0,3.0,85,0.00,,,0.00,weatherlink.com 1.10,2013-03-17 15:32:00,
2013-03-17 10:47:00,31.8,28.0,29.98,East,84,3.0,3.0,86,0.00,,,0.00,weatherlink.com 1.10,2013-03-17 15:47:00,
2013-03-17 11:02:00,32.0,29.0,29.97,East,101,0.0,4.0,87,0.00,,,0.00,weatherlink.com 1.10,2013-03-17 16:02:00,
2013-03-17 11:18:00,32.2,29.0,29.97,NNW,345,0.0,6.0,86,0.00,,,0.00,weatherlink.com 1.10,2013-03-17 16:18:00,
2013-03-17 11:33:00,32.4,29.0,29.97,ESE,108,0.0,4.0,87,0.00,,,0.00,weatherlink.com 1.10,2013-03-17 16:33:00,
2013-03-17 11:48:00,32.7,29.0,29.97,SW,219,1.0,3.0,87,0.00,,,0.00,weatherlink.com 1.10,2013-03-17 16:48:00,
2013-03-17 12:03:00,32.7,29.0,29.96,East,93,0.0,9.0,87,0.00,,,0.00,weatherlink.com 1.10,2013-03-17 17:03:00,
2013-03-17 12:18:00,32.7,30.0,29.95,NE,37,2.0,9.0,88,0.01,,,0.01,weatherlink.com 1.10,2013-03-17 17:18:00,
2013-03-17 12:33:00,33.0,30.0,29.95,SE,133,1.0,9.0,88,0.01,,,0.01,weatherlink.com 1.10,2013-03-17 17:33:00,
2013-03-17 12:48:00,33.1,30.0,29.94,East,95,0.0,7.0,88,0.01,,,0.01,weatherlink.com 1.10,2013-03-17 17:48:00,
2013-03-17 13:18:00,33.5,30.0,29.92,East,94,1.0,6.0,87,0.00,,,0.01,weatherlink.com 1.10,2013-03-17 18:18:00,
2013-03-17 13:33:00,33.7,30.0,29.90,SE,130,2.0,5.0,87,0.00,,,0.01,weatherlink.com 1.10,2013-03-17 18:33:00,
2013-03-17 13:48:00,33.9,31.0,29.90,ENE,75,1.0,8.0,88,0.01,,,0.02,weatherlink.com 1.10,2013-03-17 18:48:00,
2013-03-17 14:03:00,33.8,30.0,29.89,ENE,65,1.0,8.0,87,0.01,,,0.02,weatherlink.com 1.10,2013-03-17 19:03:00,
2013-03-17 14:18:00,33.8,31.0,29.87,East,87,1.0,8.0,88,0.01,,,0.02,weatherlink.com 1.10,2013-03-17 19:18:00,
2013-03-17 14:33:00,33.6,30.0,29.86,East,83,0.0,6.0,88,0.01,,,0.02,weatherlink.com 1.10,2013-03-17 19:33:00,
2013-03-17 14:48:00,33.7,31.0,29.86,SSE,165,0.0,8.0,89,0.00,,,0.02,weatherlink.com 1.10,2013-03-17 19:48:00,
2013-03-17 15:03:00,33.8,31.0,29.84,NE,34,2.0,6.0,89,0.01,,,0.03,weatherlink.com 1.10,2013-03-17 20:03:00,
2013-03-17 15:18:00,33.8,31.0,29.84,NE,48,0.0,6.0,90,0.01,,,0.03,weatherlink.com 1.10,2013-03-17 20:18:00,
2013-03-17 15:33:00,33.8,31.0,29.83,ENE,61,0.0,6.0,89,0.01,,,0.03,weatherlink.com 1.10,2013-03-17 20:33:00,
2013-03-17 15:48:00,33.7,31.0,29.82,SSW,193,0.0,6.0,89,0.02,,,0.04,weatherlink.com 1.10,2013-03-17 20:48:00,
2013-03-17 16:03:00,33.6,31.0,29.82,NE,56,0.0,5.0,90,0.01,,,0.04,weatherlink.com 1.10,2013-03-17 21:03:00,
2013-03-17 16:18:00,33.5,31.0,29.82,NNE,33,0.0,4.0,90,0.01,,,0.04,weatherlink.com 1.10,2013-03-17 21:18:00,
2013-03-17 16:33:00,33.3,31.0,29.81,ENE,72,1.0,6.0,90,0.01,,,0.04,weatherlink.com 1.10,2013-03-17 21:33:00,
2013-03-17 16:48:00,33.2,31.0,29.81,East,82,0.0,4.0,90,0.00,,,0.04,weatherlink.com 1.10,2013-03-17 21:48:00,
2013-03-17 17:03:00,33.1,31.0,29.81,East,81,1.0,9.0,90,0.00,,,0.04,weatherlink.com 1.10,2013-03-17 22:03:00,
2013-03-17 17:18:00,33.0,30.0,29.81,ENE,59,2.0,4.0,90,0.00,,,0.04,weatherlink.com 1.10,2013-03-17 22:18:00,
2013-03-17 17:33:00,32.8,30.0,29.79,ENE,71,0.0,6.0,89,0.00,,,0.04,weatherlink.com 1.10,2013-03-17 22:33:00,
2013-03-17 17:48:00,32.8,30.0,29.78,NE,55,3.0,8.0,90,0.00,,,0.04,weatherlink.com 1.10,2013-03-17 22:48:00,
2013-03-17 18:03:00,32.8,30.0,29.78,ESE,117,0.0,8.0,90,0.00,,,0.04,weatherlink.com 1.10,2013-03-17 23:03:00,
2013-03-17 18:18:00,32.8,30.0,29.77,East,82,2.0,5.0,90,0.00,,,0.04,weatherlink.com 1.10,2013-03-17 23:18:00,
2013-03-17 18:33:00,32.7,30.0,29.77,East,98,1.0,14.0,90,0.00,,,0.04,weatherlink.com 1.10,2013-03-17 23:33:00,
2013-03-17 18:48:00,32.7,30.0,29.77,SSE,148,0.0,8.0,91,0.01,,,0.05,weatherlink.com 1.10,2013-03-17 23:48:00,
2013-03-17 19:03:00,32.7,30.0,29.77,East,79,2.0,4.0,91,0.01,,,0.05,weatherlink.com 1.10,2013-03-18 00:03:00,
2013-03-17 19:19:00,32.7,31.0,29.77,ENE,57,0.0,10.0,92,0.01,,,0.05,weatherlink.com 1.10,2013-03-18 00:19:00,
2013-03-17 19:34:00,32.7,31.0,29.76,ESE,107,0.0,3.0,92,0.04,,,0.08,weatherlink.com 1.10,2013-03-18 00:34:00,
2013-03-17 19:49:00,32.7,31.0,29.76,ENE,73,0.0,4.0,92,0.04,,,0.09,weatherlink.com 1.10,2013-03-18 00:49:00,
2013-03-17 20:04:00,32.8,31.0,29.76,ENE,77,2.0,6.0,93,0.06,,,0.11,weatherlink.com 1.10,2013-03-18 01:04:00,
2013-03-17 20:19:00,32.9,31.0,29.76,ENE,71,0.0,4.0,93,0.06,,,0.11,weatherlink.com 1.10,2013-03-18 01:19:00,
2013-03-17 20:34:00,33.0,31.0,29.75,ESE,117,0.0,6.0,92,0.03,,,0.11,weatherlink.com 1.10,2013-03-18 01:34:00,
2013-03-17 20:49:00,33.1,31.0,29.75,SE,134,1.0,4.0,93,0.02,,,0.11,weatherlink.com 1.10,2013-03-18 01:49:00,
2013-03-17 21:04:00,33.2,31.0,29.75,East,93,1.0,4.0,93,0.00,,,0.11,weatherlink.com 1.10,2013-03-18 02:04:00,
2013-03-17 21:19:00,33.3,32.0,29.75,NE,56,2.0,4.0,93,0.00,,,0.11,weatherlink.com 1.10,2013-03-18 02:19:00,
2013-03-17 21:34:00,33.5,32.0,29.76,ENE,75,0.0,4.0,93,0.00,,,0.11,weatherlink.com 1.10,2013-03-18 02:34:00,
2013-03-17 21:49:00,33.5,32.0,29.77,ENE,75,0.0,3.0,93,0.00,,,0.11,weatherlink.com 1.10,2013-03-18 02:49:00,
2013-03-17 22:04:00,33.6,32.0,29.76,SSE,162,0.0,4.0,93,0.00,,,0.11,weatherlink.com 1.10,2013-03-18 03:04:00,
2013-03-17 22:19:00,33.6,32.0,29.77,NE,46,1.0,3.0,93,0.00,,,0.11,weatherlink.com 1.10,2013-03-18 03:19:00,
2013-03-17 22:34:00,33.7,32.0,29.76,SSE,155,0.0,2.0,92,0.00,,,0.11,weatherlink.com 1.10,2013-03-18 03:34:00,
2013-03-17 22:49:00,33.7,32.0,29.75,ESE,118,0.0,4.0,92,0.00,,,0.11,weatherlink.com 1.10,2013-03-18 03:49:00,
2013-03-17 23:04:00,33.7,32.0,29.75,ENE,72,0.0,2.0,93,0.00,,,0.11,weatherlink.com 1.10,2013-03-18 04:04:00,
2013-03-17 23:19:00,33.7,32.0,29.76,SE,143,0.0,2.0,93,0.00,,,0.11,weatherlink.com 1.10,2013-03-18 04:19:00,
2013-03-17 23:34:00,33.7,32.0,29.74,ESE,121,0.0,4.0,93,0.00,,,0.11,weatherlink.com 1.10,2013-03-18 04:34:00,
2013-03-17 23:49:00,33.7,32.0,29.74,NNE,26,0.0,2.0,93,0.00,,,0.11,weatherlink.com 1.10,2013-03-18 04:49:00,